Lid_Strength_Index
11 11 11 11 11 11 11 10 12 11 11 9 8 8 8 6 5 6 6 5 5 6 6 4 3 2 3 2 2 2 2 3 3 2 1 1 1 1 2 1 2 2 1 2
10 10 10 10 9 9 9 9 10 10 11 8 7 7 7 7 6 7 6 5 4 3 4 4 3 2 3 3 2 2 2 2 2 1 1 1 1 1 1 2 2 2 2 2
11 9 8 13 10 9 8 7 10 13 10 7 8 6 6 6 7 7 6 5 5 5 5 4 5 3 3 4 2 2 2 2 2 1 1 1 1 1 2 1 2 2 3 2
10 9 16 11 7 7 8 9 8 9 9 9 9 7 6 9 10 8 7 6 7 7 6 5 6 5 3 3 2 2 2 2 2 1 1 1 2 2 2 2 3 6 6 5
12 12 11 10 8 9 9 10 9 10 10 11 9 8 9 9 9 9 9 8 8 6 6 7 8 8 4 3 3 3 5 4 3 4 5 5 6 7 6 7 7 7 7 7
10 16 17 12 8 6 6 12 9 10 11 11 10 13 13 10 9 9 9 9 9 8 7 7 7 10 10 10 10 11 11 10 9 9 10 10 10 10 8 8 10 9 10 9
11 12 13 9 7 6 13 13 10 10 10 11 12 12 11 10 9 9 9 9 10 10 11 10 10 9 11 12 12 11 11 11 11 11 11 11 11 11 11 11 11 11 10 9
12 14 17 7 8 12 10 9 10 9 9 10 10 10 9 10 10 10 10 10 10 11 12 12 12 12 13 13 12 12 11 12 12 11 11 11 12 11 11 10 10 10 10 9
12 12 7 5 7 6 6 7 7 8 9 9 10 10 10 10 9 9 9 10 10 13 11 11 11 10 15 13 12 12 11 11 11 11 11 11 10 10 10 9 8 9 7 8
10 8 7 5 5 5 5 5 6 6 7 8 8 8 9 9 9 8 8 8 8 8 9 10 9 9 10 10 10 11 12 11 11 10 10 9 9 8 9 9 9 9 9 8
8 7 6 6 5 5 5 4 5 5 6 7 7 8 10 10 9 9 9 8 7 8 8 9 8 9 9 9 10 11 10 10 9 8 8 8 9 9 9 10 11 10 10 9
9 7 6 5 4 4 4 5 5 5 6 5 5 6 7 7 6 7 7 7 7 7 8 8 7 8 8 8 8 9 11 11 11 10 9 9 8 8 11 11 11 10 11 10
5 4 5 4 3 3 4 4 4 5 5 6 5 5 6 6 5 5 5 5 6 6 5 5 7 8 8 8 8 9 9 9 9 9 8 8 7 7 6 8 8 8 9 9
3 3 4 4 4 4 4 4 4 4 4 5 5 5 5 5 5 5 5 5 4 5 5 5 5 5 4 4 5 6 6 8 7 7 7 6 6 6 6 6 6 5 8 8
4 3 4 3 3 3 3 3 4 5 5 5 4 4 4 5 5 5 4 4 4 4 4 5 5 5 5 4 5 5 6 6 6 6 6 6 6 6 6 6 6 6 5 7
4 4 4 4 4 3 3 3 4 4 4 3 4 4 4 4 4 4 4 4 5 5 5 5 4 4 4 4 4 5 5 8 7 6 6 6 6 6 6 6 6 6 6 6
4 5 5 4 4 3 3 3 3 3 3 3 3 3 3 3 4 4 3 4 4 4 4 4 4 4 4 4 4 5 5 5 9 5 6 6 6 6 6 6 6 6 6 7
3 2 2 2 2 3 3 2 3 3 3 3 3 3 3 4 4 4 3 3 3 3 3 3 3 3 4 4 4 4 5 5 5 5 6 6 6 6 6 6 6 6 5 6
2 2 2 2 2 2 1 2 2 2 2 2 3 3 2 3 3 3 3 3 3 4 3 3 4 3 3 5 5 4 5 5 5 6 6 7 6 6 6 6 6 5 5 6
2 2 2 2 2 2 2 1 2 2 2 2 2 2 3 3 2 2 2 3 3 3 2 2 2 3 3 3 5 3 4 5 5 6 6 6 6 6 6 7 6 5 5 6
2 2 3 2 2 1 1 1 1 1 1 2 2 2 2 2 2 2 2 3 2 2 3 3 3 4 3 5 3 3 4 5 6 6 6 6 6 6 6 6 5 5 6 6
2 2 2 2 2 2 1 1 1 1 1 1 2 2 1 1 1 1 1 2 1 9 3 2 3 8 5 8 3 4 4 4 5 6 6 6 6 6 6 6 6 6 6 6
2 2 2 2 2 2 1 1 1 1 1 1 1 1 1 1 1 2 2 1 1 6 2 2 8 9 9 3 3 4 4 5 5 5 5 6 6 6 6 6 6 6 6 6
1 1 1 1 1 1 2 1 1 1 1 1 1 0 1 1 1 -0 -0 5 8 6 2 3 5 9 10 3 3 4 5 5 5 5 5 7 5 5 6 6 6 6 5 6
1 1 1 1 2 2 1 1 1 1 1 1 1 0 -0 -0 1 0 0 0 7 4 1 9 9 9 3 3 3 4 4 5 5 5 6 5 5 6 5 5 5 5 6 5
1 1 1 1 1 1 1 1 2 1 1 1 1 -0 -1 -0 -1 -0 0 3 0 3 0 1 1 1 2 3 3 4 4 4 5 6 6 5 4 5 6 6 6 5 5 6
1 4 2 1 0 0 1 1 1 1 1 1 1 0 0 -0 -0 1 3 -0 0 0 0 0 1 3 2 3 3 4 4 5 7 6 6 5 5 5 5 6 5 5 6 7